SCP
-0 -0 -0 -0 -0 -0 -0 -0 -0 -0 -0 -0 -0 -0 -0 -0 -0 -0 0 -0 -0 -1 -1 0 0 0 0 1 1 1 0 0 0 1 1 0 0 0 0 0 0 -0 -0 -0 -0
-0 -0 -0 -0 -0 -0 -0 -0 -0 -0 -0 -0 -0 -0 -0 -0 0 -0 0 -0 -2 -1 -0 -0 0 0 0 0 0 0 0 0 0 0 1 0 0 0 0 0 0 0 0 -0 -0
-0 -0 -0 -0 -0 -0 -0 -0 -0 -0 -0 -0 -0 -0 -0 -0 0 0 0 -0 -2 -0 0 0 0 0 0 0 0 0 0 0 0 0 0 0 0 0 0 0 0 0 -0 -0 -0
-0 -0 -0 -0 -0 -0 -0 -0 -0 -0 -0 -0 -0 -0 -0 0 0 0 0 -0 -0 -0 0 -0 -0 0 0 0 0 0 0 0 0 0 0 0 0 0 0 0 0 0 -0 -0 -0
-0 -0 -0 -0 -0 -0 -0 -0 -0 -0 -0 -0 -0 -0 0 0 0 0 0 0 -0 -0 -0 0 0 0 0 0 0 0 0 0 0 0 0 0 0 0 0 0 0 0 -0 -0 -0
0 0 0 0 0 -0 -0 0 0 0 0 0 0 0 0 0 0 0 0 0 0 -0 0 0 0 0 -0 -0 -0 0 -0 0 0 0 0 0 0 0 0 0 0 -0 -0 -0 -0
0 0 0 0 0 0 -0 -0 -0 0 0 0 0 0 0 0 0 0 0 0 0 0 0 0 0 -0 -0 0 -0 -0 -0 0 0 0 0 0 0 0 0 0 0 0 0 -0 -0
0 0 0 0 0 0 0 0 -0 0 0 0 0 0 0 0 0 0 0 0 0 0 0 0 0 0 0 -0 0 0 0 0 0 0 0 0 0 0 0 0 0 0 0 0 -0
-0 -0 0 0 0 0 0 0 0 0 0 0 0 0 0 0 0 0 0 0 0 0 0 0 0 0 0 -0 -0 -0 0 0 -0 -0 0 0 0 0 0 0 0 0 0 -0 -0
-0 -0 -0 -0 -0 -0 0 0 0 0 0 0 0 0 0 0 0 0 0 0 0 0 0 0 0 0 0 -0 -0 0 -0 -0 -0 -0 -0 -0 -0 0 0 0 0 0 0 -0 -0
-0 -0 -0 -0 -0 -0 0 0 0 0 0 0 0 0 0 0 0 0 0 0 0 0 0 0 0 0 -0 0 0 -0 -0 0 -0 -0 -0 -0 -0 -0 -0 -0 -0 -0 -0 0 -0
-0 -0 -0 -0 -0 -0 -0 0 0 0 0 0 0 0 0 0 0 0 0 0 0 0 0 0 0 0 0 0 0 -0 -0 -0 -0 0 -0 -0 -0 -0 -0 -1 -0 -0 -0 -0 -0
-0 -0 -0 -0 -0 0 0 0 0 0 0 0 0 0 0 0 0 0 0 0 0 0 0 0 0 0 0 0 0 -0 -0 -0 -0 0 -0 -0 -0 0 -0 -0 -0 -0 -0 0 -0
-0 -0 -0 -0 0 0 0 0 0 0 0 0 0 0 0 0 0 0 0 0 0 0 0 0 0 0 0 0 0 -0 -0 -0 0 0 0 -0 0 -0 -0 -0 -1 -1 -0 -0 0
-0 -0 -0 0 -0 0 0 0 0 0 0 0 0 0 0 0 0 0 0 0 0 0 0 0 0 0 0 0 0 0 0 0 0 0 0 0 0 -0 -0 -0 -0 -1 -1 -0 -0
-0 -0 -0 0 -0 -0 0 -0 -0 0 0 0 0 0 0 0 0 0 0 0 0 0 0 0 0 0 0 0 0 0 0 0 0 0 0 0 0 -0 0 0 0 -0 -0 -0 -0
-0 0 0 0 -0 0 0 -0 0 0 0 0 0 0 0 0 0 0 0 0 0 0 0 0 0 0 0 0 0 0 0 0 0 0 0 0 0 -0 -0 -0 -0 -0 -0 -0 -0
-0 0 0 0 0 0 -0 0 0 0 0 0 0 0 0 0 0 0 0 0 0 0 0 0 0 0 0 0 0 0 0 0 0 0 0 0 0 0 -0 0 -0 0 0 -0 -0
-0 0 0 0 -0 -0 -0 0 0 0 0 0 0 0 0 0 0 0 0 0 0 0 0 0 0 0 0 0 0 0 0 0 0 0 0 0 0 -0 -0 0 -0 -0 -0 0 -0
0 0 0 0 0 0 0 0 0 0 0 0 0 0 0 0 0 0 0 0 0 0 0 0 0 0 0 0 0 0 0 0 0 0 0 0 0 0 0 -0 0 -0 -0 0 -0
0 0 0 0 0 0 0 0 0 0 0 0 0 0 0 0 0 0 0 0 0 0 0 0 0 0 0 0 0 0 0 0 0 0 0 0 0 0 0 -0 0 0 -0 0 0
0 0 0 0 0 0 0 0 0 0 -0 0 0 0 0 0 0 0 0 0 0 0 0 0 0 0 0 0 0 0 0 0 0 0 0 0 0 0 0 0 0 0 0 0 0
0 0 0 0 0 0 0 0 0 0 -0 0 0 0 0 0 0 0 0 0 0 0 0 0 0 0 0 0 0 0 0 0 0 0 0 0 0 0 0 0 0 0 0 0 0
0 0 0 0 0 0 0 0 0 0 0 0 0 0 0 0 0 0 0 0 0 0 0 0 0 0 0 0 0 0 0 0 0 0 0 0 0 0 0 0 0 0 0 0 0
0 0 0 0 0 0 0 0 0 0 0 0 0 0 0 0 0 0 0 0 0 0 0 0 0 0 0 0 0 0 0 0 0 0 0 0 0 0 0 0 0 0 0 0 0
0 0 0 0 0 0 0 0 0 0 0 0 0 0 0 0 0 0 0 0 0 0 0 0 0 0 0 0 0 0 0 0 0 0 0 0 0 0 0 0 0 0 0 0 0
0 0 0 0 0 0 0 0 0 0 0 0 0 0 0 0 0 0 0 -0 0 0 0 0 0 0 0 0 0 0 0 0 0 0 0 0 0 0 0 0 0 0 0 0 0
Wind_Speed_500mb
21 21 22 22 23 22 24 24 23 23 22 23 20 18 17 18 22 19 12 3 2 6 7 7 7 3 3 2 5 2 2 4 7 9 8 17 13 9 9 33 13 9 17 40 59
23 22 23 23 23 24 24 25 25 24 24 24 24 19 17 16 17 18 10 9 11 11 9 13 9 5 2 1 4 5 2 3 9 14 16 19 17 18 16 21 10 17 30 57 61
25 25 24 24 24 25 25 25 26 25 25 24 24 23 18 13 6 2 2 9 12 11 11 9 11 1 4 4 5 4 5 6 6 11 36 25 14 9 23 17 19 35 56 63 57
27 27 26 26 25 25 25 26 26 26 25 25 24 23 21 5 7 13 11 10 19 15 10 4 5 2 1 5 6 3 13 7 11 17 25 23 18 9 8 3 11 39 70 66 59
29 28 28 28 27 26 26 26 27 27 25 24 24 23 18 6 8 10 3 10 21 13 8 2 1 1 3 3 11 8 7 15 20 16 20 22 14 11 2 5 20 45 57 56 53
30 29 29 29 28 27 26 26 27 27 25 23 22 22 17 8 7 8 11 12 16 14 7 4 0 3 6 7 7 13 25 26 18 21 20 12 9 8 8 23 34 51 52 49 48
30 31 29 28 28 27 25 26 26 26 24 22 20 20 22 22 7 10 13 11 9 9 8 2 4 1 6 10 10 11 17 16 8 12 8 15 7 13 31 32 39 44 42 40 42
30 29 30 29 27 26 25 25 24 21 20 19 17 18 15 11 10 17 17 15 12 9 7 6 4 11 6 16 8 6 2 2 9 8 17 4 10 11 35 41 43 43 39 37 40
32 30 28 27 26 24 21 24 16 9 12 15 13 9 14 10 10 14 20 22 17 12 8 9 5 10 9 13 8 3 5 6 5 19 11 16 12 11 35 34 38 44 41 39 35
32 29 27 24 21 19 17 14 8 5 3 8 15 8 12 2 4 6 16 22 18 12 5 5 6 7 6 9 6 9 6 5 12 10 22 20 33 8 38 37 38 41 42 40 41
34 29 24 20 15 12 12 7 7 5 9 10 4 12 18 7 11 6 14 24 20 13 11 2 11 19 25 15 8 7 3 11 16 10 15 29 29 19 46 41 41 44 45 47 50
35 29 21 16 7 6 13 10 13 10 13 16 23 37 42 38 12 2 14 15 12 13 9 8 24 20 11 15 9 7 5 6 12 3 15 11 27 19 38 52 57 50 50 51 48
35 26 18 11 4 9 9 14 16 13 4 11 9 10 9 12 12 8 11 12 7 14 21 21 9 9 15 15 14 11 10 5 10 1 12 17 17 10 19 40 49 52 50 49 51
31 21 13 6 7 7 5 13 19 9 4 12 4 3 6 7 7 19 10 7 4 15 16 9 4 8 12 14 16 27 20 12 9 6 11 3 15 22 12 24 37 58 62 61 55
28 18 11 2 4 8 1 10 15 4 5 21 4 6 3 4 10 4 19 8 11 10 8 7 7 11 14 16 15 8 11 10 7 6 6 8 9 18 1 14 35 52 66 68 61
24 18 11 6 5 4 3 10 2 4 9 9 6 11 2 5 5 5 5 8 9 9 3 3 2 4 4 4 18 10 7 5 5 3 13 3 13 22 9 14 4 17 55 68 67
25 22 15 11 8 5 5 2 2 8 5 15 8 10 3 11 10 10 5 6 7 5 5 4 13 6 9 11 6 7 13 13 14 12 17 4 10 21 30 27 22 20 23 54 67
26 24 22 15 8 14 5 1 12 2 5 4 6 7 10 13 16 15 7 4 7 5 4 7 12 15 15 30 20 22 27 18 28 21 19 8 12 11 25 34 19 14 19 30 48
24 29 30 22 18 16 4 9 4 1 7 13 6 9 15 11 6 5 19 11 5 3 9 8 9 6 11 6 15 12 14 7 11 2 7 7 9 22 26 32 17 17 17 23 37
7 13 28 23 22 14 6 5 1 5 9 4 9 6 10 16 6 5 10 8 13 5 10 1 10 12 4 9 5 10 15 10 3 13 21 11 7 12 9 18 11 11 22 25 32
6 6 22 27 18 17 7 6 6 7 5 1 6 5 6 8 6 5 7 4 12 14 1 4 6 4 5 16 23 11 9 3 3 5 14 18 11 17 23 22 20 13 21 27 32
8 4 16 21 10 6 5 10 11 11 13 3 2 8 7 11 5 5 6 5 18 10 10 3 3 10 12 1 9 15 27 27 18 20 6 9 17 15 21 21 20 27 12 28 34
6 5 16 17 6 6 6 6 5 14 15 11 10 10 6 7 2 4 7 10 8 10 11 2 3 9 7 8 6 6 6 19 11 5 22 22 15 7 4 13 21 30 10 18 35
4 2 11 15 12 4 5 6 7 11 6 7 9 4 5 5 6 1 7 7 31 10 11 6 5 4 6 12 12 15 14 15 29 20 28 25 27 23 14 14 18 27 19 19 39
10 6 5 4 7 6 2 4 6 8 7 17 4 14 4 5 7 5 6 15 18 1 9 6 12 9 16 19 9 14 22 16 29 26 20 24 24 15 8 23 24 26 25 22 37
8 4 5 3 3 2 3 2 4 7 5 4 6 16 6 5 4 7 8 7 11 7 12 2 11 5 15 11 17 22 13 16 24 26 19 23 27 6 36 26 24 25 25 33 37
18 13 4 4 2 2 2 2 2 9 6 4 11 13 15 9 16 32 35 37 33 17 14 8 8 8 16 9 22 20 6 11 8 7 7 11 10 25 30 27 28 27 27 31 36
Wind_Direction_500mb
345 343 340 339 338 338 336 336 336 338 340 338 338 335 317 295 290 301 317 330 293 333 332 360 357 343 169 253 218 264 113 105 160 177 137 148 135 129 144 144 156 169 149 163 160
341 338 334 333 331 330 330 328 329 331 333 333 335 338 327 305 290 304 284 248 269 282 291 336 334 198 175 258 205 227 43 96 171 160 159 164 155 141 144 160 136 116 148 165 163
337 335 331 328 326 323 323 322 322 323 325 328 331 335 337 323 303 232 285 223 232 237 271 311 324 329 132 175 210 159 27 135 102 156 151 160 158 157 155 192 195 166 154 165 167
334 332 328 326 322 320 318 316 315 315 317 321 326 332 336 335 179 161 40 177 191 217 238 315 326 241 267 151 194 161 49 73 125 140 149 162 154 160 180 293 200 176 166 167 173
330 328 327 326 324 319 316 313 308 306 309 313 318 326 341 306 221 201 348 146 170 192 211 231 183 217 141 170 124 83 73 70 121 146 154 153 180 165 212 73 141 159 166 173 177
329 326 325 324 323 321 318 310 301 297 300 303 307 316 322 283 231 205 170 157 166 183 205 204 75 14 65 54 48 98 102 121 117 140 156 182 167 178 134 132 139 160 174 179 186
329 327 325 322 321 323 322 310 297 292 291 290 293 301 296 271 235 193 167 165 160 177 238 276 0 146 115 112 119 118 100 110 134 145 157 151 183 229 156 151 153 170 182 189 194
333 329 325 324 322 325 326 313 306 296 282 275 277 291 268 262 232 231 224 203 200 207 240 277 48 95 74 122 65 80 65 154 179 162 162 46 282 158 168 162 164 177 190 201 208
338 333 328 324 324 332 330 321 319 304 262 257 263 259 266 249 245 213 218 213 212 203 213 251 143 102 120 139 125 42 294 240 267 210 166 205 298 144 176 184 175 182 195 204 214
341 337 331 326 328 341 338 333 323 320 290 269 251 277 252 222 243 275 206 198 183 177 205 215 108 143 136 188 182 215 304 269 279 216 217 205 247 171 187 196 196 193 197 203 211
342 341 334 328 341 4 1 314 316 294 285 232 194 266 284 308 312 174 173 175 169 175 197 68 216 214 219 200 160 190 199 302 298 211 225 238 256 211 188 201 209 205 207 209 215
344 343 340 334 1 83 44 70 47 326 312 292 270 261 270 283 295 218 177 172 169 179 148 162 221 220 123 170 199 206 239 297 293 254 220 285 265 236 195 203 207 209 211 212 222
343 344 344 346 102 141 84 46 11 348 282 306 310 286 284 227 226 243 187 173 145 156 191 202 199 170 182 166 200 223 246 240 290 184 254 298 282 197 207 216 214 222 222 224 221
349 349 356 17 127 159 130 9 351 331 9 13 12 347 329 200 239 223 180 168 94 197 165 226 333 186 197 214 206 264 211 246 259 254 314 314 301 299 183 205 212 217 220 223 223
356 358 6 69 121 137 127 334 338 339 93 334 36 348 307 243 320 60 196 183 151 127 197 140 169 185 216 230 186 268 169 249 257 243 249 198 252 277 253 258 226 217 217 220 218
11 18 28 65 99 122 301 308 314 265 56 2 3 356 305 347 336 21 134 138 113 109 119 209 289 247 176 292 213 128 174 82 76 196 260 25 234 283 281 246 337 213 222 219 217
32 36 51 67 88 37 318 187 244 49 309 359 343 357 353 9 34 22 83 122 200 202 247 297 234 204 176 235 254 202 215 239 231 225 257 69 204 253 286 272 279 281 228 217 216
39 48 56 60 52 4 25 165 69 314 330 354 340 324 54 358 51 30 74 55 54 22 171 266 255 206 178 215 219 216 229 230 244 236 246 139 216 247 266 284 274 259 251 223 212
58 56 54 49 22 358 352 59 81 298 330 330 307 52 34 29 57 72 58 39 342 261 256 197 252 283 228 222 207 163 209 282 234 51 260 229 247 279 267 273 264 250 223 206 202
36 35 30 16 3 8 69 92 348 261 315 314 49 27 42 7 53 58 35 18 353 353 249 129 272 248 224 182 62 248 141 193 224 236 246 225 246 247 253 267 286 265 217 202 197
42 64 10 8 32 45 61 21 307 307 276 346 41 56 53 11 16 56 24 96 8 356 334 197 232 200 224 204 218 204 213 90 223 241 256 259 245 224 241 255 277 273 246 208 196
50 64 4 19 49 40 29 334 334 333 12 18 360 34 39 29 37 90 51 344 353 339 350 11 242 265 260 32 315 278 240 232 237 223 244 273 249 288 249 279 279 278 260 219 206
63 50 22 26 66 36 332 353 318 355 17 21 43 26 28 40 57 52 354 336 347 336 351 154 254 284 267 135 132 252 232 235 229 245 228 244 248 251 296 300 291 284 305 226 210
47 57 29 58 72 54 3 13 356 3 59 20 34 60 28 26 20 360 332 330 330 329 345 218 210 263 293 298 302 282 264 242 242 234 242 239 256 267 247 309 323 303 280 219 207
45 66 50 29 56 44 333 334 342 6 18 21 85 39 353 315 339 359 317 319 308 7 1 325 266 206 273 276 227 262 266 260 228 244 230 264 210 259 324 323 319 301 282 230 201
63 37 29 90 325 253 9 66 344 334 305 9 38 343 332 255 203 278 307 280 277 290 313 342 280 231 285 217 268 293 274 244 238 243 253 265 274 341 316 311 312 306 275 242 217
37 25 43 2 29 244 118 348 296 345 240 248 23 319 290 275 297 283 270 262 257 274 277 278 271 252 267 313 308 265 337 272 235 227 232 247 300 322 315 311 317 311 295 263 235
Wind_Speed_850mb
21 21 22 22 23 22 24 24 23 23 22 23 20 18 17 18 22 19 12 3 2 6 7 7 7 3 3 2 5 2 2 4 7 9 8 17 13 9 9 33 13 9 17 40 59
23 22 23 23 23 24 24 25 25 24 24 24 24 19 17 16 17 18 10 9 11 11 9 13 9 5 2 1 4 5 2 3 9 14 16 19 17 18 16 21 10 17 30 57 61
25 25 24 24 24 25 25 25 26 25 25 24 24 23 18 13 6 2 2 9 12 11 11 9 11 1 4 4 5 4 5 6 6 11 36 25 14 9 23 17 19 35 56 63 57
27 27 26 26 25 25 25 26 26 26 25 25 24 23 21 5 7 13 11 10 19 15 10 4 5 2 1 5 6 3 13 7 11 17 25 23 18 9 8 3 11 39 70 66 59
29 28 28 28 27 26 26 26 27 27 25 24 24 23 18 6 8 10 3 10 21 13 8 2 1 1 3 3 11 8 7 15 20 16 20 22 14 11 2 5 20 45 57 56 53
30 29 29 29 28 27 26 26 27 27 25 23 22 22 17 8 7 8 11 12 16 14 7 4 0 3 6 7 7 13 25 26 18 21 20 12 9 8 8 23 34 51 52 49 48
30 31 29 28 28 27 25 26 26 26 24 22 20 20 22 22 7 10 13 11 9 9 8 2 4 1 6 10 10 11 17 16 8 12 8 15 7 13 31 32 39 44 42 40 42
30 29 30 29 27 26 25 25 24 21 20 19 17 18 15 11 10 17 17 15 12 9 7 6 4 11 6 16 8 6 2 2 9 8 17 4 10 11 35 41 43 43 39 37 40
32 30 28 27 26 24 21 24 16 9 12 15 13 9 14 10 10 14 20 22 17 12 8 9 5 10 9 13 8 3 5 6 5 19 11 16 12 11 35 34 38 44 41 39 35
32 29 27 24 21 19 17 14 8 5 3 8 15 8 12 2 4 6 16 22 18 12 5 5 6 7 6 9 6 9 6 5 12 10 22 20 33 8 38 37 38 41 42 40 41
34 29 24 20 15 12 12 7 7 5 9 10 4 12 18 7 11 6 14 24 20 13 11 2 11 19 25 15 8 7 3 11 16 10 15 29 29 19 46 41 41 44 45 47 50
35 29 21 16 7 6 13 10 13 10 13 16 23 37 42 38 12 2 14 15 12 13 9 8 24 20 11 15 9 7 5 6 12 3 15 11 27 19 38 52 57 50 50 51 48
35 26 18 11 4 9 9 14 16 13 4 11 9 10 9 12 12 8 11 12 7 14 21 21 9 9 15 15 14 11 10 5 10 1 12 17 17 10 19 40 49 52 50 49 51
31 21 13 6 7 7 5 13 19 9 4 12 4 3 6 7 7 19 10 7 4 15 16 9 4 8 12 14 16 27 20 12 9 6 11 3 15 22 12 24 37 58 62 61 55
28 18 11 2 4 8 1 10 15 4 5 21 4 6 3 4 10 4 19 8 11 10 8 7 7 11 14 16 15 8 11 10 7 6 6 8 9 18 1 14 35 52 66 68 61
24 18 11 6 5 4 3 10 2 4 9 9 6 11 2 5 5 5 5 8 9 9 3 3 2 4 4 4 18 10 7 5 5 3 13 3 13 22 9 14 4 17 55 68 67
25 22 15 11 8 5 5 2 2 8 5 15 8 10 3 11 10 10 5 6 7 5 5 4 13 6 9 11 6 7 13 13 14 12 17 4 10 21 30 27 22 20 23 54 67
26 24 22 15 8 14 5 1 12 2 5 4 6 7 10 13 16 15 7 4 7 5 4 7 12 15 15 30 20 22 27 18 28 21 19 8 12 11 25 34 19 14 19 30 48
24 29 30 22 18 16 4 9 4 1 7 13 6 9 15 11 6 5 19 11 5 3 9 8 9 6 11 6 15 12 14 7 11 2 7 7 9 22 26 32 17 17 17 23 37
7 13 28 23 22 14 6 5 1 5 9 4 9 6 10 16 6 5 10 8 13 5 10 1 10 12 4 9 5 10 15 10 3 13 21 11 7 12 9 18 11 11 22 25 32
6 6 22 27 18 17 7 6 6 7 5 1 6 5 6 8 6 5 7 4 12 14 1 4 6 4 5 16 23 11 9 3 3 5 14 18 11 17 23 22 20 13 21 27 32
8 4 16 21 10 6 5 10 11 11 13 3 2 8 7 11 5 5 6 5 18 10 10 3 3 10 12 1 9 15 27 27 18 20 6 9 17 15 21 21 20 27 12 28 34
6 5 16 17 6 6 6 6 5 14 15 11 10 10 6 7 2 4 7 10 8 10 11 2 3 9 7 8 6 6 6 19 11 5 22 22 15 7 4 13 21 30 10 18 35
4 2 11 15 12 4 5 6 7 11 6 7 9 4 5 5 6 1 7 7 31 10 11 6 5 4 6 12 12 15 14 15 29 20 28 25 27 23 14 14 18 27 19 19 39
10 6 5 4 7 6 2 4 6 8 7 17 4 14 4 5 7 5 6 15 18 1 9 6 12 9 16 19 9 14 22 16 29 26 20 24 24 15 8 23 24 26 25 22 37
8 4 5 3 3 2 3 2 4 7 5 4 6 16 6 5 4 7 8 7 11 7 12 2 11 5 15 11 17 22 13 16 24 26 19 23 27 6 36 26 24 25 25 33 37
18 13 4 4 2 2 2 2 2 9 6 4 11 13 15 9 16 32 35 37 33 17 14 8 8 8 16 9 22 20 6 11 8 7 7 11 10 25 30 27 28 27 27 31 36
Wind_Direction_850mb
345 343 340 339 338 338 336 336 336 338 340 338 338 335 317 295 290 301 317 330 293 333 332 360 357 343 169 253 218 264 113 105 160 177 137 148 135 129 144 144 156 169 149 163 160
341 338 334 333 331 330 330 328 329 331 333 333 335 338 327 305 290 304 284 248 269 282 291 336 334 198 175 258 205 227 43 96 171 160 159 164 155 141 144 160 136 116 148 165 163
337 335 331 328 326 323 323 322 322 323 325 328 331 335 337 323 303 232 285 223 232 237 271 311 324 329 132 175 210 159 27 135 102 156 151 160 158 157 155 192 195 166 154 165 167
334 332 328 326 322 320 318 316 315 315 317 321 326 332 336 335 179 161 40 177 191 217 238 315 326 241 267 151 194 161 49 73 125 140 149 162 154 160 180 293 200 176 166 167 173
330 328 327 326 324 319 316 313 308 306 309 313 318 326 341 306 221 201 348 146 170 192 211 231 183 217 141 170 124 83 73 70 121 146 154 153 180 165 212 73 141 159 166 173 177
329 326 325 324 323 321 318 310 301 297 300 303 307 316 322 283 231 205 170 157 166 183 205 204 75 14 65 54 48 98 102 121 117 140 156 182 167 178 134 132 139 160 174 179 186
329 327 325 322 321 323 322 310 297 292 291 290 293 301 296 271 235 193 167 165 160 177 238 276 0 146 115 112 119 118 100 110 134 145 157 151 183 229 156 151 153 170 182 189 194
333 329 325 324 322 325 326 313 306 296 282 275 277 291 268 262 232 231 224 203 200 207 240 277 48 95 74 122 65 80 65 154 179 162 162 46 282 158 168 162 164 177 190 201 208
338 333 328 324 324 332 330 321 319 304 262 257 263 259 266 249 245 213 218 213 212 203 213 251 143 102 120 139 125 42 294 240 267 210 166 205 298 144 176 184 175 182 195 204 214
341 337 331 326 328 341 338 333 323 320 290 269 251 277 252 222 243 275 206 198 183 177 205 215 108 143 136 188 182 215 304 269 279 216 217 205 247 171 187 196 196 193 197 203 211
342 341 334 328 341 4 1 314 316 294 285 232 194 266 284 308 312 174 173 175 169 175 197 68 216 214 219 200 160 190 199 302 298 211 225 238 256 211 188 201 209 205 207 209 215
344 343 340 334 1 83 44 70 47 326 312 292 270 261 270 283 295 218 177 172 169 179 148 162 221 220 123 170 199 206 239 297 293 254 220 285 265 236 195 203 207 209 211 212 222
343 344 344 346 102 141 84 46 11 348 282 306 310 286 284 227 226 243 187 173 145 156 191 202 199 170 182 166 200 223 246 240 290 184 254 298 282 197 207 216 214 222 222 224 221
349 349 356 17 127 159 130 9 351 331 9 13 12 347 329 200 239 223 180 168 94 197 165 226 333 186 197 214 206 264 211 246 259 254 314 314 301 299 183 205 212 217 220 223 223
356 358 6 69 121 137 127 334 338 339 93 334 36 348 307 243 320 60 196 183 151 127 197 140 169 185 216 230 186 268 169 249 257 243 249 198 252 277 253 258 226 217 217 220 218
11 18 28 65 99 122 301 308 314 265 56 2 3 356 305 347 336 21 134 138 113 109 119 209 289 247 176 292 213 128 174 82 76 196 260 25 234 283 281 246 337 213 222 219 217
32 36 51 67 88 37 318 187 244 49 309 359 343 357 353 9 34 22 83 122 200 202 247 297 234 204 176 235 254 202 215 239 231 225 257 69 204 253 286 272 279 281 228 217 216
39 48 56 60 52 4 25 165 69 314 330 354 340 324 54 358 51 30 74 55 54 22 171 266 255 206 178 215 219 216 229 230 244 236 246 139 216 247 266 284 274 259 251 223 212
58 56 54 49 22 358 352 59 81 298 330 330 307 52 34 29 57 72 58 39 342 261 256 197 252 283 228 222 207 163 209 282 234 51 260 229 247 279 267 273 264 250 223 206 202
36 35 30 16 3 8 69 92 348 261 315 314 49 27 42 7 53 58 35 18 353 353 249 129 272 248 224 182 62 248 141 193 224 236 246 225 246 247 253 267 286 265 217 202 197
42 64 10 8 32 45 61 21 307 307 276 346 41 56 53 11 16 56 24 96 8 356 334 197 232 200 224 204 218 204 213 90 223 241 256 259 245 224 241 255 277 273 246 208 196
50 64 4 19 49 40 29 334 334 333 12 18 360 34 39 29 37 90 51 344 353 339 350 11 242 265 260 32 315 278 240 232 237 223 244 273 249 288 249 279 279 278 260 219 206
63 50 22 26 66 36 332 353 318 355 17 21 43 26 28 40 57 52 354 336 347 336 351 154 254 284 267 135 132 252 232 235 229 245 228 244 248 251 296 300 291 284 305 226 210
47 57 29 58 72 54 3 13 356 3 59 20 34 60 28 26 20 360 332 330 330 329 345 218 210 263 293 298 302 282 264 242 242 234 242 239 256 267 247 309 323 303 280 219 207
45 66 50 29 56 44 333 334 342 6 18 21 85 39 353 315 339 359 317 319 308 7 1 325 266 206 273 276 227 262 266 260 228 244 230 264 210 259 324 323 319 301 282 230 201
63 37 29 90 325 253 9 66 344 334 305 9 38 343 332 255 203 278 307 280 277 290 313 342 280 231 285 217 268 293 274 244 238 243 253 265 274 341 316 311 312 306 275 242 217
37 25 43 2 29 244 118 348 296 345 240 248 23 319 290 275 297 283 270 262 257 274 277 278 271 252 267 313 308 265 337 272 235 227 232 247 300 322 315 311 317 311 295 263 235